Login

Heerenveen

Pos Pair Lane Name Born Nation Time
1 3 I Peder Kongshaug 2001 Norway 6:13.51
2 11 O Ethan Cepuran 2000 USA 6:15.31
3 2 O Kristian Ulekleiv 1996 Norway 6:18.61
4 8 I Seung-Hoon Lee 1988 South Korea 6:21.73
5 12 O Connor Howe 2000 Canada 6:22.15
6 9 I Vitaliy Chshigolev 1997 Kazakhstan 6:22.68
7 4 O Livio Wenger 1993 Switzerland 6:23.46
8 10 I Takahiro Ito 1996 Japan 6:24.56
9 13 O Casey Dawson 2000 USA 6:25.30
10 12 I Felix Maly 1994 Germany 6:25.65
11 8 O Yu Wu 1997 China 6:26.34
12 11 I Timothy Loubineaud 1996 France 6:26.52
13 10 O Fridtjof Petzold 1997 Germany 6:27.382
14 7 O Emery Lehman 1996 USA 6:27.385
15 13 I Andrea Giovannini 1993 Italy 6:27.51
16 2 I Antoine GĂ©linas-Beaulieu 1992 Canada 6:28.78
17 6 I Riccardo Lorello 2002 Italy 6:29.67
18 7 I Szymon Palka 1997 Poland 6:29.97
19 6 O Daniele Di Stefano 1999 Italy 6:30.20
20 9 O Motonaga Arito 2002 Japan 6:32.23
21 5 O Jae-Won Chung 2001 South Korea 6:32.40
22 5 I Bakdaulet Sagatov 2002 Kazakhstan 6:32.96
23 4 I Manuel Gras 1994 Germany 6:36.13
24 3 O Gabriel Odor 2000 Austria 6:36.83
25 1 I Philip Due Schmidt 1997 Denmark 7:02.46

Info

What World Cup B-group
Discipline 5.000
Host Heerenveen
Nation Netherlands
Date Saturday 19.Nov 2022
Calendar 2022/2023
Air Temp 14.2 C
Ice Temp -10.8 C
Humidity 32.4 %